Watsonville, CA

4:26 PM PDT on April 23, 2017 (GMT -0700)
Watsonville Municipal

Weather History for KWVI - September, 2014

Change the Weather History Date:

Friday, September 5, 2014

  Actual Average Record
Temperature  
Mean Temperature 64 °F 64 °F  
Max Temperature 71 °F 76 °F 97 °F (1961)
Min Temperature 56 °F 53 °F 47 °F (2000)
Degree Days  
Heating Degree Days 1    
Month to date heating degree days 1  
Since 1 July heating degree days 16  
Cooling Degree Days 0    
Month to date cooling degree days 4  
Year to date cooling degree days 204  
Growing Degree Days 14 (Base 50)    
Moisture  
Dew Point 55 °F    
Average Humidity 72    
Maximum Humidity 86    
Minimum Humidity 57    
Precipitation  
Precipitation 0.00 in - 0.03 in (2001)
Month to date precipitation 0.00  
Year to date precipitation 8.24  
Since 1 July precipitation 0.06  
Sea Level Pressure  
Sea Level Pressure 29.89 in    
Wind  
Wind Speed 6 mph (WSW)    
Max Wind Speed 15 mph    
Max Gust Speed 19 mph    
Visibility 10 miles    
Events      
T = Trace of Precipitation, MM = Missing Value Source: NWS Daily Summary

Daily Weather History Graph

Daily Weather History Graph

Search for Another Location

Airport or City:

Trip Planner

Search our weather history database for the weather conditions in past years. The results will help you decide how hot, cold, wet, or windy it might be!

Date:

Astronomy

Sep. 05, 2014 Rise Set
Actual Time 6:41 AM PDT 7:29 PM PDT
Civil Twilight 6:14 AM PDT 7:55 PM PDT
Nautical Twilight 5:43 AM PDT 8:26 PM PDT
Astronomical Twilight 5:11 AM PDT 8:58 PM PDT
Moon 4:59 PM PDT (9/5) 2:45 AM PDT (9/5)
Length of Visible Light 13h 40m
Length of Day
12h 48m
Waxing Gibbous, 85% of the Moon is Illuminated
Sep 5
Waxing Gibbous
Sep 8
Full
Sep 15
Last Quarter
Sep 23
New
Oct 1
First Quarter

Hourly Weather History & Observations

Time (PDT) Temp. Dew Point Humidity Pressure Visibility Wind Dir Wind Speed Gust Speed Precip Events Conditions
12:53 AM 62.1 °F 55.0 °F 78% 29.84 in 10.0 mi WSW 5.8 mph - N/A   Overcast
1:53 AM 62.1 °F 55.0 °F 78% 29.85 in 10.0 mi West 3.5 mph - N/A   Overcast
2:53 AM 61.0 °F 55.0 °F 81% 29.85 in 10.0 mi Calm Calm - N/A   Overcast
3:29 AM 61.0 °F 55.0 °F 81% 29.85 in 10.0 mi Calm Calm - N/A   Overcast
3:53 AM 61.0 °F 55.0 °F 81% 29.85 in 10.0 mi Calm Calm - N/A   Overcast
4:53 AM 61.0 °F 55.0 °F 81% 29.85 in 10.0 mi Calm Calm - N/A   Overcast
5:09 AM 61.0 °F 55.0 °F 81% 29.85 in 10.0 mi WSW 3.5 mph - N/A   Overcast
5:53 AM 61.0 °F 55.0 °F 81% 29.86 in 10.0 mi Calm Calm - N/A   Overcast
6:53 AM 61.0 °F 55.0 °F 81% 29.88 in 10.0 mi SW 3.5 mph - N/A   Overcast
7:53 AM 62.1 °F 55.9 °F 80% 29.90 in 10.0 mi Calm Calm - N/A   Overcast
8:53 AM 62.1 °F 55.0 °F 78% 29.91 in 10.0 mi SSW 4.6 mph - N/A   Overcast
9:14 AM 63.0 °F 55.0 °F 75% 29.91 in 10.0 mi Variable 3.5 mph - N/A   Overcast
9:53 AM 63.0 °F 55.0 °F 75% 29.93 in 10.0 mi West 4.6 mph - N/A   Overcast
10:53 AM 64.0 °F 55.0 °F 73% 29.93 in 10.0 mi WSW 6.9 mph - N/A   Overcast
11:36 AM 66.9 °F 55.0 °F 66% 29.92 in 10.0 mi Variable 5.8 mph - N/A   Overcast
11:53 AM 68.0 °F 55.0 °F 63% 29.91 in 10.0 mi SW 8.1 mph - N/A   Mostly Cloudy
12:09 PM 68.0 °F 55.0 °F 63% 29.91 in 10.0 mi Variable 6.9 mph - N/A   Scattered Clouds
12:53 PM 70.0 °F 55.0 °F 59% 29.91 in 10.0 mi SSW 12.7 mph - N/A   Clear
1:53 PM 71.1 °F 55.0 °F 57% 29.91 in 10.0 mi WSW 12.7 mph - N/A   Clear
3:53 PM 68.0 °F 55.0 °F 63% 29.90 in 10.0 mi SW 12.7 mph - N/A   Clear
4:53 PM 68.0 °F 55.0 °F 63% 29.90 in 10.0 mi WSW 12.7 mph - N/A   Clear
5:53 PM 66.0 °F 55.0 °F 68% 29.90 in 9.0 mi SW 9.2 mph - N/A   Clear
6:53 PM 64.0 °F 55.0 °F 73% 29.89 in 8.0 mi WSW 8.1 mph - N/A   Clear
7:53 PM 61.0 °F 54.0 °F 78% 29.90 in 9.0 mi WSW 3.5 mph - N/A   Clear
8:53 PM 61.0 °F 54.0 °F 78% 29.92 in 8.0 mi Calm Calm - N/A   Clear
9:53 PM 59.0 °F 53.1 °F 81% 29.93 in 8.0 mi NW 3.5 mph - N/A   Clear
10:53 PM 57.9 °F 53.1 °F 84% 29.94 in 8.0 mi NW 3.5 mph - N/A   Clear
11:53 PM 57.0 °F 52.0 °F 83% 29.94 in 9.0 mi NW 3.5 mph - N/A   Scattered Clouds